Погода в Борщевке

Россия / Тамбовская область     52°35′49″N   41°19′13″E
темп.,
°C
ветер,
м/с
пор.,
м/с
влажн.,
%
обл.,
%
осадки,
мм/ч
давл.,
гПа
погр.,
м
10 апреля, сб
сб1000:00+3с356685 0.0 102680
03:00+2ссв387482 0.0 1027149
06:00+1ссв368511 0.0 1027115
09:00+6св476094 0.0 1027547
12:00+9ссв56415 0.0 10251240
15:00+11ссв6637100 0.0 10241362
18:00+9св47460 0.0 1024486
21:00+5ссв356596 0.0 1025104
11 апреля, вс
вс1100:00+3с377495 0.0 1026140
03:00+3с4107672 0.0 1027216
06:00+2ссв51281100 0.0 1028259
09:00+6ссв61160100 0.0 1028532
12:00+11св7936100 0.0 1028899
15:00+12св7936100 0.0 10281006
18:00+10св61161100 0.0 1028670
21:00+8св61184100 0.1 1028501
12 апреля, пн
пн1200:00+6св599299 0.0 1028363
03:00+6св4995100 0.0 1028241
06:00+5св4996100 0.0 1027214
09:00+10в577898 0.0 1027298
12:00+17в5755100 0.0 1026614
15:00+22вюв68338 0.0 10251544
18:00+19вюв510456 0.0 1025231
21:00+13вюв412656 0.0 1026210
13 апреля, вт
вт1300:00+11вюв4116949 0.0 1026196
03:00+9вюв4117482 0.0 1026186
06:00+8вюв31074100 0.0 1026176
09:00+14юв594933 0.0 1026397
12:00+19юв6837100 0.0 10251006
15:00+20ююв6833100 0.0 10231588
18:00+18юв510410 0.0 1023336
21:00+13юв5145655 0.0 1023281
14 апреля, ср
ср1400:00+12юв4136499 0.0 1023251
03:00+10юв41069100 0.0 1023170
06:00+9юв31069100 0.0 1022177
09:00+14ююв51047100 0.0 1022411
12:00+18ююв6930100 0.0 10211042
15:00+20ююв6727100 0.0 10201763
18:00+17ююв344198 0.0 101971
21:00+14юв3351100 0.0 101933